Location: Colconda
(10.2500°N, 61.4333°W)
Time: 02:31:14
(UTC+00:00)

Daily predictions for brighter satellites

Satellite Brightness Start Highest point End
(mag) Time Altitude Azimuth Time Altitude Azimuth Time Altitude Azimuth
Resurs 1-3 3.7 00:05:11 74° W 00:05:11 74° W 00:09:26 10° NNW
Lacrosse 4 Rocket 1.8 00:02:52 10° NNW 00:06:53 68° WNW 00:06:53 68° WNW
Cosmos 1354 Rocket 4.3 00:03:37 10° NNW 00:08:48 65° WSW 00:09:55 51° SSW
Helios 1B rocket 3.7 00:05:55 10° N 00:09:45 40° WNW 00:12:38 16° SW
SWIFT 3.8 00:08:26 10° WNW 00:12:01 30° NNW 00:12:01 30° NNW
NOSS 3-1 (C) 4.5 00:17:23 10° SW 00:22:31 39° WNW 00:27:50 10° N
Cosmos 2263 Rocket 2.9 00:29:58 10° NNW 00:33:56 48° NNW 00:33:56 48° NNW
Centaur Rocket 4.2 00:23:55 10° WSW 00:36:12 73° W 00:36:12 73° W
H-2A R/B (2) 4.4 00:31:01 10° WNW 00:38:00 72° SSW 09:58:53 10° E
NOSS 3-1 (A) 4.4 00:35:08 10° SW 00:40:17 40° WNW 00:45:40 10° N
Resurs 01 Rocket 4.3 00:50:44 15° W 00:50:48 15° W 00:53:14 10° WNW
ATLAS 5 CENTAUR R/B 3.9 00:56:46 10° NNW 01:00:03 33° NNW 01:00:03 33° NNW
ATLAS CENTAUR Rocket 3.5 00:36:40 10° WNW 01:04:04 79° W 01:04:04 79° W
VEP-3 4.4 07:20:41 23° WNW 07:26:40 36° N 07:32:14 10° ENE
Ariane H10+ 4.2 07:29:17 36° SSE 07:29:17 36° SSE 07:40:17 10° ESE
Cosmos 2173 Rocket 4.5 07:24:11 10° N 07:30:11 55° E 07:32:00 41° SE
Cosmos 2100 Rocket 4.2 07:25:00 10° N 07:31:04 64° E 07:31:32 61° ESE
Centaur Rocket 4.2 07:42:05 70° WNW 07:42:58 85° NNE 08:00:24 10° ESE
IRS-1C Rocket 4.3 07:38:26 10° NNE 07:43:15 69° ENE 07:43:15 69° ENE
Cosmos 1656 3.9 07:42:11 10° N 07:47:33 63° ENE 07:52:57 10° SSE
CENTAUR R/B 3.2 07:40:23 10° NW 07:49:37 55° SW 07:56:39 10° S
ADEOS II 2.3 07:44:14 10° N 07:48:31 61° N 07:48:31 61° N
CZ-4B DEB 4.1 07:44:35 10° NNE 07:50:03 85° ESE 07:50:07 85° ESE
Tiangong 2 4.1 07:52:32 16° E 07:52:32 16° E 07:53:26 10° ENE
Cosmos 2123 Rocket 3.8 07:53:21 70° SW 07:54:01 77° W 08:00:19 10° N
ATLAS 3B CENTAUR R/B 3.3 07:59:27 19° NE 07:59:27 19° NE 08:00:09 10° NE
CZ-3 R/B 3.7 07:46:42 34° W 07:59:40 59° NNW 08:08:02 10° NE
ARIANE 2 DEBRIS 3.7 08:02:22 49° SSE 08:02:22 49° SSE 08:09:28 10° E
Ariane 5 R/B 4.5 08:01:05 51° SW 08:02:44 70° S 08:25:48 10° E
Meteor PRIRODA 4.3 08:01:51 10° NNE 08:05:20 51° E 08:05:20 51° E
Cosmos 1766 Rocket 3.6 08:06:24 72° NNW 08:06:24 72° NNW 08:10:27 10° N
Cosmos 1356 Rocket 4.5 08:05:51 24° SSE 08:07:51 43° E 08:11:42 10° NNE
Cosmos 1980 Rocket 3.9 08:02:54 10° N 08:07:54 33° ENE 08:12:52 10° SE
Cosmos 2016 Rocket 3.9 08:02:42 10° N 08:09:02 90° WNW 08:15:25 10° S
Cosmos 2061 Rocket 3.9 08:05:04 10° NNW 08:11:08 62° W 08:14:28 28° SSW
Cosmos 1447 Rocket 4.5 08:08:37 12° S 08:14:20 81° E 08:20:28 10° N
SL-24 R/B - RUBIN 2 4.4 08:13:14 42° SW 08:15:29 72° WNW 08:22:09 10° NNE
ERS-2 4.0 08:12:19 10° NE 08:15:32 29° E 08:18:46 10° SSE
Ariane 44LP R/B 4.0 08:17:44 14° SE 08:17:44 14° SE 08:18:30 10° ESE
Okean-O 3.5 08:12:44 10° NNE 08:16:59 47° E 08:21:11 10° S
IRAS Rocket 4.1 08:12:59 10° N 08:18:37 76° WNW 08:21:38 28° SSW
Stardust Del rocket 4.4 08:18:56 40° WNW 08:20:26 55° NNW 08:29:10 10° ENE
CZ-4B R/B 3.5 08:18:21 10° N 08:23:15 39° WNW 08:23:40 39° W
Cosmos 1408 Rocket 3.9 08:24:22 45° WNW 08:24:22 45° WNW 08:28:26 10° NNW
PSLV R/B 3.9 08:25:23 30° E 08:25:23 30° E 08:26:34 10° ENE
ISS -3.0 08:25:33 39° NNW 08:25:33 39° NNW 08:28:03 10° NNE
GPS 2-18 Rocket1 2.8 08:24:36 73° W 08:24:55 84° NNW 08:28:41 10° ENE
Cosmos 1459 Rocket 4.4 08:19:14 10° NNW 08:25:00 39° W 08:26:53 32° SW
Cosmos 1340 Rocket 4.3 08:29:08 22° NW 08:29:08 22° NW 08:31:06 10° NNW
Cosmos 1743 Rocket 3.6 08:27:37 13° S 08:31:32 84° E 08:35:58 10° N
Okean O Rocket 3.6 08:29:32 10° NNW 08:30:44 15° NW 08:30:44 15° NW
ASC 2 Rocket 4.1 08:31:01 24° SSW 08:32:33 31° SSE 08:36:10 10° E
Mugunghwa Rocket 4.1 08:35:28 28° WSW 08:39:16 78° NNW 08:46:35 10° ENE
SWIFT 4.2 08:43:30 16° SSW 08:43:30 16° SSW 08:46:00 10° SSE
Cosmos 1725 Rocket 4.0 08:37:41 10° NNW 08:43:55 65° W 08:50:10 10° S
Cosmos 1328 3.7 08:41:49 13° SSW 08:45:18 67° W 08:49:13 10° N
Cosmos 2221 3.2 08:44:08 10° NNW 08:47:50 30° W 08:49:44 21° SW
CZ-2C R/B 3.5 08:45:28 10° S 08:49:52 82° WSW 08:54:18 10° NNW
Intelsat 5-3 Rocket 4.3 08:48:00 10° NW 08:50:30 16° N 08:52:18 10° NE
Cosmos 1908 3.4 08:48:21 10° NNW 08:52:06 49° W 08:55:54 10° S
Tiangong 1 1.5 08:51:57 10° NW 08:54:42 52° NE 08:57:28 10° ESE
Cosmos 2228 Rocket 4.1 08:50:58 10° N 08:55:13 49° E 08:59:30 10° SSE
Centaur AC-64 2.8 08:54:44 22° SW 08:55:27 26° SSW 08:59:20 10° SE
Cosmos 1110 Rocket 3.9 08:51:08 10° NNW 08:56:22 73° WSW 09:01:34 10° S
Meteor 1-31 Rocket 3.6 08:54:19 10° NNW 08:57:47 31° WNW 09:00:24 15° SW
SL-14 R/B 3.6 08:57:23 10° SSW 09:01:00 40° W 09:04:38 10° NNW
Cosmos 2233 Rocket 4.0 08:58:18 10° N 09:04:35 74° W 09:10:53 10° S
NOAA 6 4.1 09:01:14 10° N 09:06:19 62° WNW 09:11:26 10° SSW
Cosmos 2058 2.8 09:03:09 10° S 09:07:18 82° W 09:11:26 10° N
Delta 7925 Rocket 3.5 09:05:24 14° W 09:09:12 56° NNW 09:14:05 10° NE
Cosmos 1703 3.6 09:05:56 10° S 09:09:49 69° E 09:13:42 10° N
IUS-17 SRM-1 4.2 09:06:40 13° SW 09:09:58 77° SSE 09:27:38 10° ENE
Lacrosse 5 3.8 09:07:40 10° S 09:11:59 28° ESE 09:16:17 10° ENE
Cosmos 2151 3.1 09:08:21 10° SSW 09:12:29 52° W 09:16:36 10° N
Cosmos 1626 2.3 09:10:56 10° S 09:14:39 75° E 09:18:22 10° N
Cosmos 1697 Rocket 3.8 09:11:20 10° NW 09:15:30 22° WSW 09:19:41 10° SSW
Cosmos 2360 4.3 09:11:38 10° NNW 09:17:12 57° WSW 09:22:45 10° S
Ariane Rocket 4.1 09:12:32 10° NNE 09:17:24 47° ESE 09:22:17 10° S
Cosmos 1300 2.7 09:15:11 10° N 09:19:00 85° E 09:22:50 10° S
CZ-2C R/B 4.3 09:15:58 10° NE 09:19:59 30° E 09:23:58 10° SSE
ARIANE 5 R/B 1.5 09:18:44 10° WSW 09:20:12 18° S 09:21:27 10° SE
Cosmos 1331 Rocket 4.3 09:15:20 10° NNW 09:20:13 44° WSW 09:25:05 10° S
USA 267 3.3 09:16:05 10° SSE 09:22:31 63° SW 09:28:58 10° NW
COSMO-SKYMED 1 4.1 09:18:51 10° SSE 09:22:56 42° ENE 09:27:00 10° N
Meteor 2-12 Rocket 4.4 09:19:32 10° N 09:25:40 76° W 09:31:47 10° S
Tiangong 2 3.3 09:25:39 10° WNW 09:27:28 14° NW 09:29:18 10° N
